World > North America > United States > Ohio

Hourly Greenville, OH Regional Weather

Feedback E-mail the Weather

Latest News

Greenville, OH Weather Maps

°F °C°F °C
Greenville Weather Map
UTC Time: 5/21/2022, 11:48
Your Time:

Greenville, OH Regional Weather

Expires:202205211200;;324165
ASUS41 KCLE 211112
RWRCLE
OHIO REGIONAL WEATHER ROUNDUP
NATIONAL WEATHER SERVICE WILMINGTON, OH
700 AM EDT SAT MAY 21 2022

NOTE: "FAIR" INDICATES FEW OR NO CLOUDS BELOW 12,000 FEET WITH NO
SIGNIFICANT WEATHER AND/OR OBSTRUCTIONS TO VISIBILITY.


OHZ042-051>053-060>062-070>072-077>081-211200-
  SOUTHWEST OHIO
  
CITY           SKY/WX    TMP DP  RH WIND       PRES   REMARKS
CINC-COVINGTON MOCLDY    72  66  81 S10       29.96R                  
CINC-LUNKEN    MOCLDY    70  66  87 SW5       29.96R                  
HAMILTON       FAIR      71  64  78 CALM      29.95R                  
DAYTON         MOCLDY    74  63  68 SW16      29.94R                  
WRIGHT-PAT AFB MOCLDY    72  62  71 S12       29.91R                  
DAYTON GENERAL FAIR      72  63  73 SW9       29.94R                  
WILMINGTON     FAIR      72  64  76 SW12      29.96R                  
$$


SKY/WX - Weather  TMP - Temperature  DP - Dew Point  RH - Humidity
WIND - Wind Direction/Speed PRES - Barometric Pressure VSB - Visibility
WCI - Wind Chill Index E13G22 Wind - East Wind 13 mph/Gusts of 22 mph

Trending Headlines

Greenville Radar Loop



Greenville Quick Facts


National Two Day Weather Forecast


E-mail the Greenville Weather Forecast

Voice your opinion or tell us about page issues...